D-SAT (42794 NORAD) Tracking and Keplerian Element Data

This shows tracking and keplerian element data for the satellite.

Feedback or suggestion? Click here.




ElementValue
Catalog42794
NameD-SAT
Epoch Orbit39833
Epoch Day286.51716611
Epoch Year2024
RAAN264.3293
Inclination97.4887
Eccentricity0.0107355
Argument of Perigee108.6658
Mean Anonmoly252.6259
Mean Motion15.03630251
Decay Rate0.00013207
L11 42794U 17036AF 24286.51716611 .00013207 00000-0 85328-3 0 9995
L22 42794 97.4887 264.3293 0107355 108.6658 252.6259 15.03630251398338



Live tracking and technical data element details for D-SAT (NORAD 42794). D-SAT can be tracked NOW for your location showing map with azimuth and elevation plus other details from your city location.







IsCatalogInMostPopularTable: catalog: 42794, numindb: 557
Update: records affected: 1



GetName: 42794 D-SAT

Hit Count: updated at: Fri, 24 Jan 2025 23:21:04 GMT